Location: Dittelspoint
(48.7198°N, 10.7214°E)
Time: 08:37:44
(UTC+00:00)

Cosmos 2100 Rocket - Pass Details

Date: 09 April 2020
Orbit: 957 x 1000 km, 82.9° (Epoch: 24 May)

Event Time Altitude Azimuth Distance (km) Brightness Sun altitude
Rises 22:12:37 0° 352° (N) 3,670 8.1 -31.4°
Reaches altitude 10° 22:15:10 10° 355° (N) 2,724 7.2 -31.6°
Enters shadow 22:20:39 61° 42° (NE) 1,101 4.2 -31.9°
